Location: Mactaquac Provincial Park
(45.9573°N, 66.8897°W)
Time: 17:22:04
(UTC-04:00)

Daily predictions for brighter satellites

Satellite Brightness Start Highest point End
(mag) Time Altitude Azimuth Time Altitude Azimuth Time Altitude Azimuth
Cosmos 2016 Rocket 4.1 17:10:05 10° S 17:16:19 63° E 17:22:31 10° NNE
COSMO-SKYMED 1 4.3 17:20:42 10° ENE 17:22:50 13° E 17:24:58 10° ESE
Cosmos 332 Rocket 3.9 17:18:13 10° NNW 17:23:06 85° WSW 17:27:59 10° SSE
Cosmos 1763 Rocket 4.0 17:21:56 10° N 17:26:49 38° ENE 17:31:37 10° SE
DNEPR-1 R/B 3.6 17:22:56 10° SW 17:27:19 81° NW 17:31:34 10° NE
YAOGAN 1 3.5 17:23:51 10° SE 17:27:30 27° ENE 17:31:10 10° N
CSL-04 Debris 4.2 17:22:37 10° SSE 17:27:57 61° ENE 17:33:18 10° N
CZ-4 R/B 1.8 17:28:55 10° SE 17:32:30 37° ENE 17:36:05 10° N
Cosmos 1346 Rocket 4.3 17:30:15 10° SW 17:33:52 37° WNW 17:37:33 10° N
Cosmos 1833 Rocket 3.8 17:30:00 10° N 17:34:27 23° NE 17:38:52 10° E
Cosmos 1844 3.9 17:29:37 10° S 17:35:14 56° ESE 17:40:55 10° NE
ATLAS 3B R/B 4.0 17:29:01 10° W 17:35:26 33° NNW 17:41:36 10° NNE
TSX-5 4.4 17:32:10 10° NW 17:35:29 57° WSW 17:39:24 10° SSE
Cosmos 1814 Rocket 4.3 17:30:26 10° NNW 17:35:39 49° ENE 17:40:50 10° SE
Cosmos 1707 Rocket 4.2 17:32:57 10° SSW 17:37:22 63° W 17:41:49 10° N
Cosmos 2173 Rocket 4.4 17:31:53 10° SSW 17:37:56 67° W 17:44:05 10° N
Aureole 3 3.8 17:33:35 10° N 17:37:57 82° E 17:43:33 10° S
Cosmos 1933 3.3 17:35:22 10° S 17:39:23 71° E 17:43:25 10° NNE
ALOS 3.5 17:37:24 10° ESE 17:40:50 21° ENE 17:44:16 10° NNE
Cosmos 2278 Rocket 3.0 17:36:27 10° SSE 17:41:21 31° ESE 17:46:17 10° NE
SJ-7 4.4 17:37:48 10° SSE 17:41:58 77° ENE 17:46:06 10° N
Cosmos 2263 Rocket 4.0 17:40:38 10° WSW 17:45:23 27° NW 17:50:08 10° N
SL-27 R/B 3.6 17:45:26 10° N 17:48:02 21° ENE 17:50:38 10° ESE
CZ-2C R/B 3.9 17:45:09 10° SSW 17:49:51 42° W 17:54:44 10° NNW
SMAP 3.0 17:46:09 10° SSE 17:50:48 83° ENE 17:55:28 10° NNW
BREEZE-M DEB (TANK) 4.4 17:40:07 10° WNW 17:51:36 51° SW 17:55:31 10° SE
Ariane Rocket 3.1 17:47:34 10° SSE 17:52:40 85° WSW 17:57:47 10° NNW
USA 234 4.0 17:49:26 12° ENE 17:54:47 35° SE 18:00:37 10° SSW
Cosmos 1633 3.7 17:52:16 10° NNE 17:55:14 23° ENE 17:58:12 10° SE
CORIOLIS 4.1 17:50:22 10° SSE 17:55:48 80° ENE 18:01:17 10° NNW
Cosmos 540 Rocket 4.2 17:54:48 10° N 17:59:22 30° ENE 18:03:52 10° ESE
Cosmos 841 Rocket 3.6 17:55:22 10° NNW 18:00:34 54° ENE 18:05:43 10° SE
Cosmos 1484 Rocket 3.0 17:56:55 10° S 18:00:45 73° WSW 18:04:41 10° NNW
Cosmos 972 Rocket 4.1 17:57:20 10° NNW 18:02:17 74° WSW 18:07:10 10° S
Meteor 1-28 Rocket 3.1 17:59:10 10° NNE 18:02:52 64° E 18:06:33 10° S
Cosmos 2233 Rocket 4.0 17:59:17 10° S 18:05:30 68° E 18:11:40 10° NNE
Cosmos 1486 Rocket 4.4 18:01:04 10° S 18:05:55 41° ESE 18:10:24 12° NE
BREEZE-M DEB (TANK) 2.0 18:05:41 10° WNW 18:07:38 47° NNE 18:08:34 29° ENE
Cosmos 1606 3.6 18:05:30 10° SSE 18:08:44 27° E 18:10:04 22° NE
EO 1 Del DPAF 3.9 18:06:24 15° NE 18:09:04 33° E 18:12:33 10° SSE
Meteor 1-25 Rocket 4.3 18:03:33 10° N 18:09:23 65° ENE 18:15:09 10° SSE
SKYMED 2 4.0 18:07:11 10° NNE 18:11:17 40° E 18:15:22 10° SSE
Cosmos 1908 Rocket 3.5 18:07:16 10° N 18:11:35 60° ENE 18:15:52 10° SSE
CZ-4C R/B 3.5 18:06:51 10° NNW 18:12:54 33° NNE 18:17:03 20° E
Landsat 4 3.7 18:09:17 10° NNE 18:13:02 61° ESE 18:16:47 10° S
Meteor 1-20 Rocket 4.1 18:08:41 10° N 18:14:16 63° ENE 18:19:42 10° SSE
Cosmos 1733 Rocket 3.9 18:10:34 10° NNW 18:14:54 54° W 18:19:13 10° S
Cosmos 2242 Rocket 4.3 18:10:29 10° SSW 18:14:59 59° W 18:19:29 10° N
Cosmos 1782 3.4 18:12:20 10° SSE 18:15:58 34° E 18:17:52 22° NE
MTI 3.9 18:14:04 19° NNE 18:16:11 51° E 18:19:19 10° S
SPOT 3 Rocket 3.7 18:11:17 10° SE 18:16:20 52° ENE 18:21:23 10° N
Cosmos 2082 Rocket 2.5 18:13:01 10° NNW 18:18:27 43° NE 18:23:49 10° SE
Sich 1 Rocket 3.5 18:14:22 10° N 18:18:45 60° E 18:23:08 10° SSE
Lacrosse 5 3.1 18:16:04 10° W 18:20:36 32° NNW 18:23:53 16° NE
Cosmos 972 4.3 18:15:49 10° NNW 18:20:58 85° ENE 18:25:51 10° SSE
NOAA 12 4.2 18:20:26 10° SE 18:25:36 54° ENE 18:30:47 10° N
Cosmos 1862 Rocket 4.2 18:22:40 10° SSW 18:27:01 57° WNW 18:31:26 10° N
Cosmos 44 Rocket 4.0 18:26:13 10° NNW 18:30:38 34° NE 18:31:38 31° ENE
METEOR-M 4.3 18:33:45 10° S 18:39:05 77° WSW 18:44:28 10° NNW
Meteor 1-10 Rocket 4.3 18:33:52 10° SSE 18:39:19 51° E 18:44:54 10° NNE
CENTAUR R/B 3.2 18:35:33 10° WSW 18:41:37 54° NW 18:47:25 15° NNE
Cosmos 292 Rocket 4.0 18:42:46 10° N 18:47:20 44° ENE 18:47:25 44° ENE
Okean 1-7 2.9 18:45:55 10° S 18:50:16 69° E 18:52:08 33° NNE
ERS-2 3.3 18:47:06 10° S 18:50:37 43° W 18:54:10 10° NNW
Cosmos 1844 Rocket 4.2 18:48:36 10° WSW 18:53:38 32° NW 18:58:40 10° N
Cosmos 1782 Rocket 3.6 18:51:30 10° N 18:55:51 79° W 19:00:12 10° S
COSMOS 2455 3.5 18:51:27 10° SW 18:57:20 54° NW 19:01:47 18° NNE
Timation 2 Rocket 4.4 18:51:09 10° NNW 18:57:39 43° NE 18:58:46 40° ENE
Cosmos 1072 Rocket 4.4 18:51:33 10° S 18:57:45 81° E 19:04:05 10° N
COSMO-SKYMED 1 2.9 18:55:24 12° N 18:59:26 65° WNW 19:03:44 10° SSW
Nadezhda 4 Rocket 4.0 18:56:15 10° N 19:02:15 52° ENE 19:05:13 29° SE
YAOGAN 1 4.4 18:59:39 10° SSW 19:03:31 31° W 19:07:24 10° NNW
Cosmos 2034 Rocket 4.0 18:57:51 10° S 19:04:06 62° E 19:10:22 10° NNE
BREEZE-M R/B 3.8 19:03:33 10° W 19:06:21 39° SSW 19:07:11 34° S
Meteor 1-11 Rocket 3.7 19:00:52 10° N 19:06:46 64° ENE 19:10:14 24° SSE
CZ-4 R/B 4.2 19:05:01 10° SW 19:07:42 18° W 19:10:23 10° NW
Cosmos 44 3.1 19:03:34 10° NNW 19:08:00 66° NE 19:08:00 66° NE
Cosmos 2221 Rocket 3.6 19:07:36 10° SSW 19:12:01 78° W 19:13:09 49° N
FENGYUN 3A 4.1 19:08:56 10° S 19:14:17 63° WSW 19:19:41 10° NNW
ALOS 3.1 19:13:23 10° S 19:17:55 51° W 19:22:29 10° NNW
Cosmos 2297 3.6 19:12:19 10° SSW 19:18:00 76° ESE 19:18:47 65° NE
Cosmos 1833 Rocket 2.9 19:13:19 10° NNW 19:18:55 70° WSW 19:23:09 18° SSE
Cosmos 2278 Rocket 3.1 19:19:49 10° SW 19:25:15 45° WNW 19:28:39 22° N
Cosmos 1503 Rocket 4.0 19:20:45 10° SSW 19:26:02 79° WNW 19:26:49 64° N
ATLAS 3B R/B 4.5 19:23:52 10° NW 19:28:25 18° N 19:30:31 16° NNE
Okean 2 Rocket 3.9 19:27:27 10° NNW 19:31:52 52° W 19:36:15 10° S
Meteor 2-20 4.5 19:27:32 10° NNW 19:33:39 76° W 19:39:40 10° S
Cosmos 1464 Rocket 4.4 19:27:43 10° SSW 19:33:46 61° WNW 19:39:53 10° N
MOS 1-B Rocket 4.5 19:28:24 10° SSE 19:35:36 87° ENE 19:44:07 10° NNW
USA 234 3.2 19:36:48 58° NE 19:38:09 79° NNW 19:44:42 10° WSW
CZ-4C R/B 2.8 19:55:07 10° NW 20:02:16 86° SW 20:02:17 86° SW
Cosmos 2082 Rocket 3.7 19:57:22 10° NW 20:02:23 33° WSW 20:05:55 17° SSW
Lacrosse 5 4.0 20:00:48 10° NW 20:03:04 19° NNW 20:03:04 19° NNW
CENTAUR R/B 4.4 20:28:51 10° WNW 20:34:04 23° NNW 20:34:37 23° N
